| time (UTC) | temp C | wind direction | speed KPH | gust KPH | rain 1hr cm | rain 24hr cm | rain mn cm | humidity % | barometer mb |
| 20260504160348 | 21 | 146 | 1.6 | 1.6 | 0.00 | 0.00 | 0.00 | 90 | 1014.0 |
| 20260504150345 | 23 | 146 | 3.2 | 3.2 | 0.00 | 0.00 | 0.00 | 90 | 1015.0 |
| 20260504140343 | 20 | 137 | 3.2 | 1.6 | 0.00 | 0.00 | 0.00 | 95 | 1015.0 |
| 20260504130341 | 16 | 105 | 1.6 | 1.6 | 0.00 | 0.00 | 0.00 | 95 | 1015.0 |
| 20260504110337 | 12 | 295 | 0.0 | 0.0 | 0.00 | 0.00 | 0.00 | 91 | 1015.0 |
| 20260504100335 | 12 | 307 | 0.0 | 1.6 | 0.00 | 0.00 | 0.00 | 91 | 1015.0 |
| 20260504080331 | 12 | 334 | 0.0 | 1.6 | 0.00 | 0.00 | 0.00 | 91 | 1015.0 |
| 20260504070329 | 13 | 287 | 1.6 | 1.6 | 0.00 | 0.00 | 0.00 | 93 | 1015.0 |
| 20260504050325 | 13 | 299 | 1.6 | 1.6 | 0.00 | 0.00 | 0.00 | 90 | 1016.0 |
| 20260504043324 | 15 | 299 | 1.6 | 1.6 | 0.08 | 0.00 | 0.00 | 90 | 1016.0 |
| 20260504040324 | 16 | 299 | 3.2 | 1.6 | 0.05 | 0.00 | 0.00 | 90 | 1016.0 |
| 20260504033323 | 12 | 311 | 1.6 | 4.8 | 0.00 | 0.00 | 0.00 | 89 | 1016.0 |
| 20260504030322 | 13 | 311 | 1.6 | 4.8 | 0.00 | 0.00 | 0.00 | 89 | 1016.0 |
| 20260504023320 | 15 | 311 | 1.6 | 4.8 | 0.00 | 0.00 | 0.00 | 89 | 1016.0 |
| 20260504020319 | 16 | 311 | 3.2 | 4.8 | 0.00 | 0.00 | 0.00 | 89 | 1015.0 |
| 20260504013318 | 13 | 280 | 4.8 | 4.8 | 0.00 | 0.00 | 0.00 | 89 | 1015.0 |
| 20260504010317 | 14 | 280 | 4.8 | 4.8 | 0.00 | 0.00 | 0.00 | 89 | 1014.0 |
| 20260504003316 | 15 | 280 | 4.8 | 4.8 | 0.00 | 0.00 | 0.00 | 89 | 1014.0 |
| 20260504000315 | 16 | 280 | 4.8 | 4.8 | 0.00 | 0.00 | 0.00 | 89 | 1013.0 |
| 20260503233313 | 17 | 280 | 4.8 | 4.8 | 0.00 | 0.00 | 0.00 | 89 | 1012.0 |
| 20260503230312 | 15 | 301 | 4.8 | 8.0 | 0.00 | 0.00 | 0.00 | 82 | 1011.0 |
| 20260503223311 | 16 | 301 | 4.8 | 8.0 | 0.00 | 0.00 | 0.00 | 82 | 1011.0 |
| 20260503220310 | 17 | 301 | 4.8 | 8.0 | 0.00 | 0.00 | 0.00 | 82 | 1011.0 |
| 20260503213309 | 18 | 301 | 4.8 | 8.0 | 0.00 | 0.00 | 0.00 | 82 | 1010.0 |
| 20260503210308 | 17 | 302 | 1.6 | 1.6 | 0.00 | 0.00 | 0.00 | 71 | 1010.0 |
| 20260503203307 | 18 | 302 | 1.6 | 1.6 | 0.00 | 0.00 | 0.00 | 71 | 1010.0 |
| 20260503200305 | 20 | 302 | 1.6 | 1.6 | 0.00 | 0.00 | 0.00 | 71 | 1010.0 |
| 20260503193305 | 21 | 302 | 1.6 | 1.6 | 0.00 | 0.00 | 0.00 | 71 | 1010.0 |
| 20260503190303 | 22 | 302 | 1.6 | 1.6 | 0.00 | 0.00 | 0.00 | 71 | 1010.0 |
| 20260503183302 | 23 | 302 | 1.6 | 1.6 | 0.00 | 0.00 | 0.00 | 71 | 1010.0 |
| 20260503180301 | 24 | 302 | 3.2 | 3.2 | 0.00 | 0.00 | 0.00 | 71 | 1011.0 |
| 20260503173300 | 21 | 301 | 3.2 | 3.2 | 0.00 | 0.00 | 0.00 | 77 | 1012.0 |
| 20260503170259 | 22 | 308 | 0.0 | 3.2 | 0.00 | 0.00 | 0.00 | 77 | 1013.0 |